Terminal Aerodrome Forecast
Issued by NWS Blacksburg, VA

Current Version | Previous Version | Text Only | Print | Product List | Glossary Off
Versions: 1 2 3 4 5 6 7 8 9 10 11 12 13 14 15 16 17 18 19 20 21 22 23 24 25 26 27 28 29 30 31 32 33 34 35 36 37 38 39 40 41 42

000
FTUS41 KRNK 081723
TAFBLF
TAF
KBLF 081723Z 0818/0918 24012G21KT P6SM BKN035
     FM082000 25012G24KT 4SM TSRA OVC040CB
     FM090200 26010KT 6SM -SHRA OVC050
     FM090800 26007KT 5SM BR OVC025
     FM091400 27008KT P6SM BKN050=

USA.gov is the U.S. government's official web portal to all federal, state and local government web resources and services.